Address 0x8eb8d0290ce4a4680f388f4ec8777991f21a9b06 6

Txn Hash Method
Block
From
To
Value [Txn Fee]
0x3d715b274ce27c8bfdcd8b649f1234670cc6e618b66703fca207cc2def0f1c23Transfer55736002022-11-15 14:45:2512 days 19 hrs ago0x8eb8d0290ce4a4680f388f4ec8777991f21a9b06OUT0x9f7f4be468fde6d7a916c74ab1d755c5e8f212fb1.3 CRO0.102421312844 4,877.20537355
0x88acc32966f110e1cfce744e2de91be6c3de77980c188597a2e0d3f94033b7adTransfer55550642022-11-14 9:23:1914 days 1 hr ago0x8eb8d0290ce4a4680f388f4ec8777991f21a9b06OUT0x9f7f4be468fde6d7a916c74ab1d755c5e8f212fb106 CRO0.102438890405 4,878.042400269
0x1bface3f098d03a35d52598efa4c2ad9432e3b8437e0b5706a86f5b0397340e5Transfer55550622022-11-14 9:23:0814 days 1 hr ago0x8eb8d0290ce4a4680f388f4ec8777991f21a9b06OUT Cronos: USDC Token0 CRO0.172921728177 4,878.042488565
0xba5846998c66ea9b6005b3ec3afb92d947e9353aceae7416cabf87a53ef95cbbSwap Exact Token...55550562022-11-14 9:22:3414 days 1 hr ago0x8eb8d0290ce4a4680f388f4ec8777991f21a9b06OUT VVS Finance: Router0 CRO0.69872 5,000
0xa92b7b110be99aa0b3dc557e0551614f559d7f84fe15e0a06977c2de115696c0Swap Exact Token...55376612022-11-13 5:34:2515 days 5 hrs ago0x8eb8d0290ce4a4680f388f4ec8777991f21a9b06OUT VVS Finance: Router0 CRO0.662155 5,000
0x15577bf9d7558074da4b7625917629b2cdb0609d8b4d665a078d431ae94ff0c5Swap Exact Token...54844592022-11-09 17:33:0418 days 17 hrs ago0x8eb8d0290ce4a4680f388f4ec8777991f21a9b06OUT VVS Finance: Router0 CRO0.69842 5,000
0xe2329730d6a2295e69ddc95a213aaf0b87342f008f7620e5058251788f298c58Swap Exact Token...54844572022-11-09 17:32:5218 days 17 hrs ago0x8eb8d0290ce4a4680f388f4ec8777991f21a9b06OUT VVS Finance: Router0 CRO0.69842 5,000
0xac23f3de4eff0c9ee680df25ac7a1473af7270daf8214cea786c51e4343897ccSwap Exact Token...54601682022-11-08 3:01:3120 days 7 hrs ago0x8eb8d0290ce4a4680f388f4ec8777991f21a9b06OUT VVS Finance: Router0 CRO0.69848 5,000
0xa1c54c6f9dc1bc32a6092b7b33068b5058b376cd7a868a160d77df45b0eed07eSwap Exact Token...54601662022-11-08 3:01:1920 days 7 hrs ago0x8eb8d0290ce4a4680f388f4ec8777991f21a9b06OUT VVS Finance: Router0 CRO0.61656 5,000
0xb8be19cba2cca7b34c85c33cdcf867a789b43024294e053889fe715c9cd98496Swap Exact Token...54601532022-11-08 3:00:0420 days 7 hrs ago0x8eb8d0290ce4a4680f388f4ec8777991f21a9b06OUT VVS Finance: Router0 CRO0.69848 5,000
0xcdba901b2f53a7cd75f5fe22e4ebd6be45368c1048ecdc610302e36864274bbcSwap Exact Token...54601512022-11-08 2:59:5320 days 7 hrs ago0x8eb8d0290ce4a4680f388f4ec8777991f21a9b06OUT VVS Finance: Router0 CRO0.69848 5,000
0x8a5818467a1413217c0f721636c183cc8afee1dbfb8e5ee99b4ab331a191c7d9Swap Exact Token...54601232022-11-08 2:57:1220 days 7 hrs ago0x8eb8d0290ce4a4680f388f4ec8777991f21a9b06OUT VVS Finance: Router0 CRO0.69848 5,000
0xbb22c584d3a2561e6a2533babc3c0f5e3cc5533b89247316acebed7fb4b71c7bSwap Exact Token...54601202022-11-08 2:56:5420 days 7 hrs ago0x8eb8d0290ce4a4680f388f4ec8777991f21a9b06OUT VVS Finance: Router0 CRO0.69842 5,000
0xf4efd53ed98f10e91f8cfc1b3f46ff5fdecf82d0451e2e6eca9080e2ba646922Swap Exact Token...54600902022-11-08 2:54:0220 days 7 hrs ago0x8eb8d0290ce4a4680f388f4ec8777991f21a9b06OUT VVS Finance: Router0 CRO0.69842 5,000
0xfac4fbbbd0b4a20370d3b212de59166032bd5f04ede7e40a32c6347226a64052Swap Exact Token...54600562022-11-08 2:50:4720 days 7 hrs ago0x8eb8d0290ce4a4680f388f4ec8777991f21a9b06OUT VVS Finance: Router0 CRO0.16268 5,000
0x5fbf03ebfa6a6b4f1fd55604e1654ca6ad5f07cee78f2d3166f821a5eb319a4fSwap Exact Token...54577322022-11-07 23:11:0820 days 11 hrs ago0x8eb8d0290ce4a4680f388f4ec8777991f21a9b06OUT VVS Finance: Router0 CRO0.662095 5,000
0x8ec7d403c301af415ea0aad2782e1ae5c7b5746c1c465d3ad4cedb85bf9a079fSwap Exact Token...54573032022-11-07 22:30:3520 days 12 hrs ago0x8eb8d0290ce4a4680f388f4ec8777991f21a9b06OUT VVS Finance: Router0 CRO0.69842 5,000
0xfeb4710227a4ce36af10bfa10cc4ca6dfcad5d400699e166688af4059b59756fSwap Exact Token...54572372022-11-07 22:24:1820 days 12 hrs ago0x8eb8d0290ce4a4680f388f4ec8777991f21a9b06OUT VVS Finance: Router0 CRO0.69848 5,000
0x4b0fbcaaef873ca05521557e293fd443365100c4c1cc7bc03345875a9cccffadSwap Exact Token...54571792022-11-07 22:18:4820 days 12 hrs ago0x8eb8d0290ce4a4680f388f4ec8777991f21a9b06OUT VVS Finance: Router0 CRO0.69848 5,000
0xf8eb52bd1a94d5c9272479d065ea0757dba260488e483dcfa99808331a61d6f0Swap Exact Token...54571772022-11-07 22:18:3620 days 12 hrs ago0x8eb8d0290ce4a4680f388f4ec8777991f21a9b06OUT VVS Finance: Router0 CRO0.69842 5,000
0x38939bb076d550eca7911cd5ba8415f4f5fd4691e4c828d48e670aa9d4a395deSwap Exact Token...54571642022-11-07 22:17:2220 days 12 hrs ago0x8eb8d0290ce4a4680f388f4ec8777991f21a9b06OUT VVS Finance: Router0 CRO0.69842 5,000
0xb39e36ebaeb9f50633094229473f95941745bfa941faae24466952a943b87eb3Swap Exact Token...54571522022-11-07 22:16:1320 days 12 hrs ago0x8eb8d0290ce4a4680f388f4ec8777991f21a9b06OUT VVS Finance: Router0 CRO0.69842 5,000
0x03b1266ccfe95b26ceb8d3fb7114b5b573bce700eef34c510d5f496eef8e66a6Swap Exact Token...54571402022-11-07 22:15:0120 days 12 hrs ago0x8eb8d0290ce4a4680f388f4ec8777991f21a9b06OUT VVS Finance: Router0 CRO0.69842 5,000
0x7a971689af4238fb64d1f8e26b99331b85f02e00025004177fc41ab75e87a294Swap Exact Token...54525982022-11-07 15:04:3620 days 19 hrs ago0x8eb8d0290ce4a4680f388f4ec8777991f21a9b06OUT VVS Finance: Router0 CRO0.662095 5,000
0x494d4219dac10d4fae8f5f4c679f288db923ee171ebf22d73b71ac9880e97ba0Swap Exact Token...54525862022-11-07 15:03:2820 days 19 hrs ago0x8eb8d0290ce4a4680f388f4ec8777991f21a9b06OUT VVS Finance: Router0 CRO0.662095 5,000
[ Download CSV Export 
Latest 5 internal transactions
Parent Txn Hash Block From To Value
0x942411d2430ed9cb50b66c9fec01e319a66d260c17b4c4c509efa21bd8196ba154844482022-11-09 17:32:0118 days 17 hrs ago VVS Finance: Router0x8eb8d0290ce4a4680f388f4ec8777991f21a9b06109.710578396118808243 CRO
0x7b218210a9c1c31165cdb28f5b1e78ecd6cad1c44d1e5725d61ac44f876a19b438578472022-07-25 21:35:20125 days 13 hrs ago VVS Finance: Router0x8eb8d0290ce4a4680f388f4ec8777991f21a9b06752.182626127339622009 CRO
0x8939a1048ff6a5db3c895dbe4b86d04eaeda0d85c2407a1895e18b99d3916edd35662082022-07-06 16:12:19144 days 18 hrs ago Mad Meerkat Finance: Master Meerkat & Router0x8eb8d0290ce4a4680f388f4ec8777991f21a9b06855.685516482484601118 CRO
0x257434b9715c49d7d36b276b03a20b5ad1242585e5e37db4547250bf30179dab35662062022-07-06 16:12:08144 days 18 hrs ago Mad Meerkat Finance: Master Meerkat & Router0x8eb8d0290ce4a4680f388f4ec8777991f21a9b06855.72554818329179715 CRO
0xe051e4557857002a8c70d5e3d5ae1217c87d16b586f1943cc96110d980c6cd2734878342022-07-01 12:10:31149 days 22 hrs ago VVS Finance: Router0x8eb8d0290ce4a4680f388f4ec8777991f21a9b06890.281411416316412279 CRO
[ Download CSV Export 
Loading

Contract Name:
0

Compiler Version
0

Optimization Enabled:
0

Other Settings:
-NA-
Block Transaction Gas Used Reward
Age Block Fee Address BC Fee Address Voting Power Jailed Incoming
Block Uncle Number Difficulty Gas Used Reward
Loading
Make sure to use the "Vote Down" button for any spammy posts, and the "Vote Up" for interesting conversations.